GW2898 Weather Reports


Display with metric or nautical units.
time (UTC)temp
F
wind
direction
speed
MPH
gust
MPH
rain 1hr
in
rain 24hr
in
rain mn
in
humidity
%
barometer
mb
20260831082813 80 102 2.0 5.0 0.00 0.00 0.00 68 1015.6
20260831082308 80 79 5.0 7.0 0.00 0.00 0.00 68 1015.4
20260831081803 80 33 3.0 4.0 0.00 0.00 0.00 67 1015.7
20260831081259 81 10 2.0 6.0 0.00 0.00 0.00 67 1015.8
20260831080754 81 66 4.0 7.0 0.00 0.00 0.00 66 1016.1
20260831080249 81 29 4.0 8.0 0.00 0.00 0.00 66 1016.0
20260831075745 81 27 5.0 14.0 0.00 0.00 0.00 65 1015.7
20260831075235 81 50 4.0 9.0 0.00 0.00 0.00 66 1015.8
20260831074734 81 16 4.0 7.0 0.00 0.00 0.00 68 1015.5
20260831074228 81 28 4.0 6.0 0.00 0.00 0.00 68 1015.5
20260831073724 81 8 3.0 7.0 0.00 0.00 0.00 68 1015.4
20260831073223 81 0 2.0 6.0 0.00 0.00 0.00 68 1015.4
20260831072718 81 349 5.0 10.0 0.00 0.00 0.00 67 1015.6
20260831072215 81 326 7.0 9.0 0.00 0.00 0.00 66 1015.6
20260831071715 81 313 3.0 11.0 0.00 0.00 0.00 66 1015.6
20260831071209 81 333 4.0 13.0 0.00 0.00 0.00 66 1015.7
20260831070708 82 313 4.0 9.0 0.00 0.00 0.00 66 1015.5
20260831070202 82 329 8.0 11.0 0.00 0.00 0.00 66 1015.0
20260831065702 82 6 3.0 11.0 0.00 0.09 0.09 65 1014.8
20260831065200 83 308 7.0 11.0 0.00 0.09 0.09 63 1014.8
20260831064655 84 19 4.0 10.0 0.00 0.09 0.09 60 1015.1
20260831064151 84 353 7.0 11.0 0.00 0.09 0.09 59 1014.8
20260831063647 84 4 6.0 12.0 0.00 0.09 0.09 59 1014.5
20260831063142 85 23 5.0 8.0 0.00 0.09 0.09 56 1014.8
20260831062643 85 343 4.0 9.0 0.00 0.09 0.09 56 1014.6
20260831062142 85 356 3.0 7.0 0.00 0.09 0.09 56 1014.3
20260831061640 85 16 4.0 13.0 0.00 0.09 0.09 56 1014.4
20260831061136 85 16 3.0 5.0 0.00 0.09 0.09 54 1014.0
20260831060633 84 97 3.0 3.0 0.00 0.09 0.09 56 1013.9
20260831060132 86 79 3.0 4.0 0.00 0.09 0.09 54 1013.9
20260831055631 86 78 0.0 2.0 0.00 0.09 0.09 47 1013.6
20260831055127 86 234 1.0 5.0 0.00 0.09 0.09 47 1013.5
20260831054626 86 269 5.0 7.0 0.00 0.09 0.09 48 1013.5
20260831054126 85 233 3.0 13.0 0.00 0.09 0.09 51 1013.7
20260831053621 83 248 5.0 8.0 0.00 0.09 0.09 55 1013.8
20260831053120 82 234 9.0 11.0 0.00 0.09 0.09 60 1014.1
20260831052618 82 242 4.0 10.0 0.00 0.09 0.09 60 1014.3
20260831052118 80 259 7.0 12.0 0.05 0.09 0.09 67 1014.1
20260831051616 77 250 4.0 8.0 0.17 0.09 0.09 79 1014.3
20260831051115 76 233 3.0 6.0 0.38 0.08 0.08 82 1015.0
20260831050610 77 258 5.0 9.0 0.24 0.05 0.05 80 1015.0
20260831050109 78 229 3.0 13.0 0.05 0.02 0.02 76 1015.0
20260831045608 78 221 7.0 11.0 0.07 0.01 0.01 78 1015.1
20260831045103 78 205 4.0 12.0 0.05 0.01 0.01 77 1015.5
20260831044558 79 221 9.0 17.0 0.00 0.00 0.00 73 1015.4
20260831044053 80 212 5.0 16.0 0.00 0.00 0.00 70 1014.9
20260831043549 82 195 8.0 17.0 0.00 0.00 0.00 63 1014.7
20260831043044 81 208 9.0 21.0 0.00 0.00 0.00 67 1014.7
20260831042543 83 232 7.0 19.0 0.00 0.00 0.00 64 1014.9
20260831042039 86 215 3.0 20.0 0.00 0.00 0.00 55 1015.0
20260831041534 87 237 5.0 14.0 0.00 0.00 0.00 47 1014.4
20260831041033 87 189 3.0 11.0 0.00 0.00 0.00 48 1014.0
20260831040528 87 175 3.0 14.0 0.00 0.00 0.00 50 1014.0
20260831040027 87 238 14.0 22.0 0.00 0.00 0.00 50 1014.0
20260831035525 88 241 7.0 11.0 0.00 0.00 0.00 52 1013.7
20260831035021 89 213 8.0 21.0 0.00 0.00 0.00 50 1013.7
20260831034521 89 229 9.0 13.0 0.00 0.00 0.00 51 1013.5
20260831034016 90 222 8.0 15.0 0.00 0.00 0.00 49 1013.5
20260831033512 92 211 13.0 20.0 0.00 0.00 0.00 45 1013.4
20260831033007 92 161 3.0 10.0 0.00 0.00 0.00 45 1013.5
20260831032506 95 225 14.0 17.0 0.00 0.00 0.00 41 1013.1
20260831032002 100 219 3.0 5.0 0.00 0.00 0.00 34 1012.3
20260831031501 99 271 3.0 6.0 0.00 0.00 0.00 34 1012.3
20260831031001 99 297 1.0 3.0 0.00 0.00 0.00 35 1012.2
20260831030500 99 308 1.0 3.0 0.00 0.00 0.00 35 1012.2
20260831025958 99 327 2.0 2.0 0.00 0.00 0.00 35 1012.2
20260831025457 99 313 1.0 3.0 0.00 0.00 0.00 35 1011.9
20260831024953 99 336 2.0 2.0 0.00 0.00 0.00 34 1011.8
20260831024448 100 336 2.0 4.0 0.00 0.00 0.00 34 1012.0
20260831023942 99 318 2.0 3.0 0.00 0.00 0.00 34 1011.8
20260831023440 99 332 2.0 2.0 0.00 0.00 0.00 34 1011.8
20260831022936 100 333 1.0 5.0 0.00 0.00 0.00 34 1011.6
20260831022434 100 336 2.0 4.0 0.00 0.00 0.00 34 1011.7
20260831021929 100 321 2.0 4.0 0.00 0.00 0.00 33 1011.4
20260831021423 100 321 1.0 5.0 0.00 0.00 0.00 34 1011.2
20260831020920 100 320 2.0 3.0 0.00 0.00 0.00 34 1011.3
20260831020419 100 340 1.0 4.0 0.00 0.00 0.00 34 1011.2
20260831015914 100 0 1.0 4.0 0.00 0.00 0.00 33 1011.2
20260831015410 100 322 2.0 5.0 0.00 0.00 0.00 33 1011.1
20260831014905 100 340 1.0 3.0 0.00 0.00 0.00 33 1010.9
20260831014404 101 296 3.0 5.0 0.00 0.00 0.00 33 1010.9
20260831013900 101 308 2.0 3.0 0.00 0.00 0.00 33 1010.8
20260831013355 102 323 3.0 6.0 0.00 0.00 0.00 32 1010.9
20260831012849 102 281 3.0 6.0 0.00 0.00 0.00 32 1010.6
20260831012345 102 298 2.0 5.0 0.00 0.00 0.00 32 1011.0
20260831011845 102 312 2.0 6.0 0.00 0.00 0.00 32 1010.9
20260831011340 103 306 0.0 3.0 0.00 0.00 0.00 32 1010.6
20260831010836 103 319 1.0 4.0 0.00 0.00 0.00 32 1010.6
20260831010335 103 338 3.0 7.0 0.00 0.00 0.00 31 1011.0
20260831005831 103 343 1.0 4.0 0.00 0.00 0.00 31 1011.0
20260831005327 104 294 3.0 4.0 0.00 0.00 0.00 31 1011.1
20260831004821 105 343 0.0 2.0 0.00 0.00 0.00 31 1011.3
20260831004318 103 52 0.0 3.0 0.00 0.00 0.00 31 1011.1
20260831003813 104 129 0.0 2.0 0.00 0.00 0.00 33 1010.9
20260831003309 105 357 1.0 4.0 0.00 0.00 0.00 31 1011.1
20260831002808 105 260 3.0 4.0 0.00 0.00 0.00 29 1011.1
20260831002306 105 301 2.0 4.0 0.00 0.00 0.00 30 1011.0
20260831001759 103 338 3.0 6.0 0.00 0.00 0.00 31 1011.1
20260831001253 104 314 3.0 8.0 0.00 0.00 0.00 30 1011.0
20260831000750 105 262 2.0 5.0 0.00 0.00 0.00 31 1011.1
20260831000245 105 274 3.0 4.0 0.00 0.00 0.00 30 1011.2
20260830235744 104 269 0.0 7.0 0.00 0.00 0.00 30 1011.0
20260830235238 105 280 3.0 6.0 0.00 0.00 0.00 30 1011.2
20260830234733 104 312 3.0 7.0 0.00 0.00 0.00 30 1011.1
20260830234230 104 310 0.0 6.0 0.00 0.00 0.00 30 1011.2
20260830233725 105 318 3.0 8.0 0.00 0.00 0.00 30 1011.3
20260830233221 105 346 2.0 11.0 0.00 0.00 0.00 30 1011.4
20260830232716 105 7 3.0 5.0 0.00 0.00 0.00 30 1011.4
20260830232211 105 316 1.0 3.0 0.00 0.00 0.00 29 1011.3
20260830231708 104 176 1.0 6.0 0.00 0.00 0.00 30 1011.6
20260830231207 104 86 3.0 3.0 0.00 0.00 0.00 31 1011.7
20260830230702 103 307 1.0 8.0 0.00 0.00 0.00 30 1012.0
20260830230157 105 236 0.0 2.0 0.00 0.00 0.00 29 1011.7
20260830225651 105 282 2.0 7.0 0.00 0.00 0.00 31 1011.8
20260830225146 105 306 3.0 6.0 0.00 0.00 0.00 30 1011.9
20260830224645 105 356 2.0 5.0 0.00 0.00 0.00 30 1012.0
20260830224141 105 336 2.0 4.0 0.00 0.00 0.00 30 1012.2
20260830223638 104 246 4.0 6.0 0.00 0.00 0.00 32 1012.4
20260830223137 105 230 3.0 4.0 0.00 0.00 0.00 33 1012.0
20260830222632 104 116 2.0 2.0 0.00 0.00 0.00 31 1012.5
20260830222128 104 295 2.0 8.0 0.00 0.00 0.00 31 1012.5
20260830221623 104 206 2.0 3.0 0.00 0.00 0.00 31 1012.6
20260830221119 104 261 1.0 4.0 0.00 0.00 0.00 29 1012.6
20260830220615 104 61 2.0 5.0 0.00 0.00 0.00 31 1012.6
20260830220113 103 71 2.0 4.0 0.00 0.00 0.00 32 1012.7
20260830215612 105 84 2.0 3.0 0.00 0.00 0.00 33 1013.0
20260830215107 103 67 3.0 4.0 0.00 0.00 0.00 31 1013.1
20260830214602 104 89 2.0 5.0 0.00 0.00 0.00 32 1013.2
20260830214057 104 288 3.0 4.0 0.00 0.00 0.00 31 1013.4
20260830213551 104 331 3.0 4.0 0.00 0.00 0.00 30 1013.5
20260830213047 103 50 3.0 7.0 0.00 0.00 0.00 31 1013.5
20260830212543 103 95 4.0 8.0 0.00 0.00 0.00 31 1013.9
20260830212037 103 73 2.0 3.0 0.00 0.00 0.00 31 1014.0
20260830211532 102 199 3.0 7.0 0.00 0.00 0.00 34 1014.0
20260830211031 102 185 4.0 7.0 0.00 0.00 0.00 32 1014.2
20260830210527 103 12 4.0 6.0 0.00 0.00 0.00 31 1014.2
20260830210026 102 309 2.0 3.0 0.00 0.00 0.00 32 1014.0
20260830205524 102 75 2.0 6.0 0.00 0.00 0.00 34 1014.3
20260830205020 102 153 3.0 5.0 0.00 0.00 0.00 32 1014.2
20260830204518 101 176 2.0 6.0 0.00 0.00 0.00 33 1014.6
20260830204018 101 135 9.0 11.0 0.00 0.00 0.00 33 1014.5
20260830203514 102 276 3.0 3.0 0.00 0.00 0.00 32 1014.9
20260830203009 102 293 1.0 6.0 0.00 0.00 0.00 32 1014.7
20260830202503 102 114 2.0 3.0 0.00 0.00 0.00 35 1014.8
20260830202000 101 24 1.0 5.0 0.00 0.00 0.00 34 1015.0
20260830201458 101 48 3.0 8.0 0.00 0.00 0.00 33 1015.1
20260830200954 101 228 0.0 4.0 0.00 0.00 0.00 33 1014.9
20260830200448 101 19 4.0 11.0 0.00 0.00 0.00 34 1015.2
20260830195943 101 4 3.0 7.0 0.00 0.00 0.00 34 1015.2
20260830195438 100 302 3.0 5.0 0.00 0.00 0.00 35 1015.1
20260830194936 100 301 5.0 9.0 0.00 0.00 0.00 34 1015.3
20260830194436 101 332 0.0 2.0 0.00 0.00 0.00 34 1015.3
20260830193935 100 286 2.0 7.0 0.00 0.00 0.00 35 1015.6
20260830193434 100 350 2.0 4.0 0.00 0.00 0.00 34 1015.7
20260830192930 100 245 2.0 3.0 0.00 0.00 0.00 35 1015.6
20260830192425 100 203 1.0 7.0 0.00 0.00 0.00 34 1015.8
20260830191920 100 323 1.0 4.0 0.00 0.00 0.00 37 1015.8
20260830191420 100 201 1.0 5.0 0.00 0.00 0.00 36 1016.0
20260830190916 100 255 1.0 3.0 0.00 0.00 0.00 36 1016.0
20260830190411 99 227 3.0 9.0 0.00 0.00 0.00 38 1016.3
20260830185910 100 155 5.0 9.0 0.00 0.00 0.00 35 1016.3
20260830185405 100 202 3.0 5.0 0.00 0.00 0.00 35 1016.3
20260830184900 100 59 3.0 5.0 0.00 0.00 0.00 35 1016.5
20260830184359 100 224 0.0 5.0 0.00 0.00 0.00 36 1016.3
20260830183854 100 177 2.0 5.0 0.00 0.00 0.00 39 1016.4
20260830183349 99 218 2.0 5.0 0.00 0.00 0.00 36 1016.5
20260830182844 98 261 3.0 9.0 0.00 0.00 0.00 37 1016.8
20260830182340 98 249 3.0 10.0 0.00 0.00 0.00 37 1016.9
20260830181836 98 219 3.0 5.0 0.00 0.00 0.00 38 1016.8
20260830181331 99 179 2.0 7.0 0.00 0.00 0.00 38 1017.1
20260830180830 99 129 1.0 5.0 0.00 0.00 0.00 37 1016.9
20260830180325 98 106 1.0 2.0 0.00 0.00 0.00 38 1017.1
20260830175824 98 165 4.0 10.0 0.00 0.00 0.00 37 1017.1
20260830175319 97 168 4.0 8.0 0.00 0.00 0.00 39 1017.1
20260830174814 97 166 5.0 10.0 0.00 0.00 0.00 37 1017.5
20260830174310 97 212 3.0 7.0 0.00 0.00 0.00 39 1017.2
20260830173809 96 154 4.0 8.0 0.00 0.00 0.00 39 1017.3
20260830173305 96 172 2.0 11.0 0.00 0.00 0.00 39 1017.3
20260830172801 96 204 3.0 5.0 0.00 0.00 0.00 40 1017.3
20260830172257 95 210 3.0 8.0 0.00 0.00 0.00 41 1017.3
20260830171753 96 196 3.0 8.0 0.00 0.00 0.00 39 1017.4
20260830171248 95 161 1.0 6.0 0.00 0.00 0.00 40 1017.3
20260830170742 95 191 5.0 9.0 0.00 0.00 0.00 40 1017.4
20260830170242 95 189 7.0 10.0 0.00 0.00 0.00 40 1017.4
20260830165740 95 201 2.0 7.0 0.00 0.00 0.00 42 1017.4
20260830165236 95 225 3.0 10.0 0.00 0.00 0.00 40 1017.5
20260830164733 95 202 3.0 10.0 0.00 0.00 0.00 40 1017.5
20260830164228 95 222 6.0 15.0 0.00 0.00 0.00 41 1017.2
20260830163725 95 172 2.0 8.0 0.00 0.00 0.00 40 1017.3
20260830163220 94 147 0.0 7.0 0.00 0.00 0.00 42 1017.3
20260830162715 95 212 3.0 7.0 0.00 0.00 0.00 41 1017.4
20260830162212 95 94 2.0 4.0 0.00 0.00 0.00 42 1017.4
20260830161707 93 84 2.0 7.0 0.00 0.00 0.00 42 1017.5
20260830161201 93 225 3.0 6.0 0.00 0.00 0.00 43 1017.3
20260830160657 94 150 4.0 6.0 0.00 0.00 0.00 41 1017.3
20260830160156 93 156 4.0 7.0 0.00 0.00 0.00 43 1017.3
20260830155653 93 224 0.0 3.0 0.00 0.00 0.00 44 1017.5
20260830155149 92 176 0.0 6.0 0.00 0.00 0.00 44 1017.4
20260830154644 92 183 4.0 10.0 0.00 0.00 0.00 43 1017.3
20260830154140 92 169 5.0 10.0 0.00 0.00 0.00 43 1017.4
20260830153636 93 163 7.0 9.0 0.00 0.00 0.00 42 1017.4
20260830153136 92 210 1.0 6.0 0.00 0.00 0.00 44 1017.1
20260830152634 91 138 1.0 6.0 0.00 0.00 0.00 44 1017.2
20260830152134 91 222 5.0 8.0 0.00 0.00 0.00 45 1017.2
20260830151629 91 168 5.0 9.0 0.00 0.00 0.00 45 1017.3
20260830151124 91 172 3.0 7.0 0.00 0.00 0.00 44 1017.4
20260830150623 91 172 2.0 6.0 0.00 0.00 0.00 44 1017.4
20260830150118 92 143 1.0 3.0 0.00 0.00 0.00 42 1017.2
20260830145618 91 151 3.0 5.0 0.00 0.00 0.00 44 1017.4
20260830145113 91 94 0.0 4.0 0.00 0.00 0.00 47 1017.4
20260830144609 91 81 2.0 4.0 0.00 0.00 0.00 46 1017.2
20260830144104 90 179 2.0 4.0 0.00 0.00 0.00 46 1017.4
20260830143600 90 84 2.0 4.0 0.00 0.00 0.00 47 1017.3
20260830143058 89 29 2.0 6.0 0.00 0.00 0.00 48 1017.3
20260830142554 88 226 1.0 3.0 0.00 0.00 0.00 49 1017.4
20260830142049 88 146 0.0 4.0 0.00 0.00 0.00 49 1017.4
20260830141544 87 155 0.0 3.0 0.00 0.00 0.00 50 1017.2
20260830141039 86 145 2.0 5.0 0.00 0.00 0.00 52 1017.2
20260830140538 85 56 3.0 4.0 0.00 0.00 0.00 53 1017.1
20260830140034 84 64 0.0 3.0 0.00 0.00 0.00 55 1017.3
20260830135529 84 18 0.0 1.0 0.00 0.00 0.00 57 1017.1
20260830135024 84 230 0.0 1.0 0.00 0.00 0.00 57 1017.3
20260830134520 84 213 0.0 3.0 0.00 0.00 0.00 55 1016.8
20260830134015 84 147 0.0 1.0 0.00 0.00 0.00 55 1016.9
20260830133511 83 183 0.0 2.0 0.00 0.00 0.00 58 1017.0
20260830133006 82 89 0.0 2.0 0.00 0.00 0.00 60 1016.8
20260830132457 82 63 2.0 3.0 0.00 0.00 0.00 63 1016.7
20260830131956 81 147 0.0 0.0 0.00 0.00 0.00 62 1016.6
20260830131455 81 147 0.0 1.0 0.00 0.00 0.00 63 1016.8
20260830130949 82 336 0.0 1.0 0.00 0.00 0.00 62 1016.6
20260830130440 82 38 2.0 2.0 0.00 0.00 0.00 62 1016.6
20260830125938 82 240 0.0 0.0 0.00 0.00 0.00 61 1016.3
20260830125434 82 230 0.0 1.0 0.00 0.00 0.00 61 1016.0
20260830124932 81 55 2.0 3.0 0.00 0.00 0.00 62 1015.8
20260830124427 81 107 0.0 2.0 0.00 0.00 0.00 61 1016.1
20260830123924 81 212 0.0 1.0 0.00 0.00 0.00 61 1016.1
20260830123420 81 184 1.0 2.0 0.00 0.00 0.00 62 1016.0
20260830122918 81 201 0.0 1.0 0.00 0.00 0.00 61 1016.0
20260830122412 82 91 0.0 2.0 0.00 0.00 0.00 60 1015.6
20260830121907 82 75 0.0 3.0 0.00 0.00 0.00 59 1015.5
20260830121403 82 46 2.0 3.0 0.00 0.00 0.00 60 1015.4
20260830120856 82 339 0.0 2.0 0.00 0.00 0.00 60 1015.5
20260830120352 82 353 1.0 2.0 0.00 0.00 0.00 60 1015.3
20260830115848 82 25 1.0 2.0 0.00 0.00 0.00 61 1015.4
20260830115344 81 76 0.0 2.0 0.00 0.00 0.00 60 1015.3
20260830114839 81 104 0.0 0.0 0.00 0.00 0.00 60 1015.4
20260830114336 81 116 1.0 1.0 0.00 0.00 0.00 60 1015.3
20260830113831 81 284 0.0 1.0 0.00 0.00 0.00 60 1015.5
20260830113326 82 113 0.0 1.0 0.00 0.00 0.00 59 1015.6
20260830112822 81 343 0.0 0.0 0.00 0.00 0.00 59 1015.5
20260830112317 82 333 0.0 1.0 0.00 0.00 0.00 58 1015.4
20260830111813 82 307 0.0 1.0 0.00 0.00 0.00 58 1015.2
20260830111309 82 229 0.0 1.0 0.00 0.00 0.00 58 1015.5
20260830110808 82 142 0.0 0.0 0.00 0.00 0.00 57 1015.4
20260830110305 82 124 0.0 2.0 0.00 0.00 0.00 57 1015.4
20260830105804 82 202 0.0 1.0 0.00 0.00 0.00 57 1015.5
20260830105301 82 179 0.0 3.0 0.00 0.00 0.00 56 1015.4
20260830104756 82 148 1.0 2.0 0.00 0.00 0.00 56 1015.6
20260830104253 83 244 1.0 2.0 0.00 0.00 0.00 55 1015.5
20260830103751 83 220 0.0 3.0 0.00 0.00 0.00 55 1015.4
20260830103248 83 144 2.0 3.0 0.00 0.00 0.00 55 1015.5
20260830102746 84 215 2.0 3.0 0.00 0.00 0.00 54 1015.4
20260830102241 84 152 5.0 6.0 0.00 0.00 0.00 53 1015.7
20260830101737 84 37 0.0 2.0 0.00 0.00 0.00 54 1015.5
20260830101233 85 77 1.0 3.0 0.00 0.00 0.00 53 1015.4
20260830100731 84 195 0.0 1.0 0.00 0.00 0.00 55 1015.3
20260830100226 83 209 0.0 3.0 0.00 0.00 0.00 56 1015.4
20260830095725 83 110 1.0 1.0 0.00 0.00 0.00 57 1015.2
20260830095221 83 104 0.0 0.0 0.00 0.00 0.00 57 1015.1
20260830094717 83 104 0.0 1.0 0.00 0.00 0.00 57 1015.1
20260830094213 83 256 0.0 0.0 0.00 0.00 0.00 56 1014.9
20260830093707 83 129 0.0 1.0 0.00 0.00 0.00 56 1014.8
20260830093204 84 205 0.0 0.0 0.00 0.00 0.00 55 1014.9
20260830092703 84 205 0.0 0.0 0.00 0.00 0.00 55 1014.7
20260830092201 84 343 0.0 0.0 0.00 0.00 0.00 54 1014.8
20260830091656 84 343 0.0 0.0 0.00 0.00 0.00 54 1014.6
20260830091155 85 343 0.0 1.0 0.00 0.00 0.00 53 1014.4
20260830090654 85 113 0.0 0.0 0.00 0.00 0.00 53 1014.6
20260830090150 86 103 0.0 2.0 0.00 0.00 0.00 52 1014.4
20260830085649 86 16 0.0 2.0 0.00 0.00 0.00 51 1014.7
20260830085145 86 347 1.0 1.0 0.00 0.00 0.00 51 1014.7
20260830084641 86 29 0.0 3.0 0.00 0.00 0.00 50 1014.6
20260830084136 86 337 1.0 4.0 0.00 0.00 0.00 50 1014.7
20260830083631 85 19 3.0 4.0 0.00 0.00 0.00 52 1014.8
20260830083126 85 117 0.0 1.0 0.00 0.00 0.00 53 1014.7